Weather History for Pascagoula, MS

Change the Weather History Date:

Monday, January 21, 2013

  Actual Average Record
Temperature  
Mean Temperature 50 °F -  
Max Temperature 68 °F 58 °F 75 °F (1982)
Min Temperature 33 °F 40 °F 6 °F (1985)
Degree Days  
Heating Degree Days 14    
Moisture  
Dew Point 38 °F    
Average Humidity 83    
Maximum Humidity 100    
Minimum Humidity 35    
Precipitation  
Precipitation 0.00 in - - ()
Sea Level Pressure  
Sea Level Pressure 30.17 in    
Wind  
Wind Speed 1 mph (North)    
Max Wind Speed 13 mph    
Max Gust Speed 16 mph    
Visibility 5 miles    
Events      
Averages and records for this station are not official NWS values.
T = Trace of Precipitation, MM = Missing Value Source: NWS Daily Summary

Daily Weather History Graph

Daily Weather History Graph

Search for Another Location

Airport:

Trip Planner

Search our weather history database for the weather conditions in past years. The results will help you decide how hot, cold, wet, or windy it might be!

Date:

Astronomy

Jan. 21, 2013 Rise Set
Actual Time 6:50 AM CST 5:21 PM CST
Civil Twilight 6:24 AM CST 5:46 PM CST
Nautical Twilight 5:55 AM CST 6:16 PM CST
Astronomical Twilight 5:26 AM CST 6:44 PM CST
Moon 1:02 PM CST (1/21) 2:17 AM CST (1/21)
Length of Visible Light 11h 22m
Length of Day
10h 31m
Waxing Gibbous, 75% of the Moon is Illuminated
Jan 21
Waxing Gibbous
Jan 26
Full
Feb 3
Last Quarter
Feb 10
New
Feb 17
First Quarter

Hourly Weather History & Observations

Time (CST) Temp. Windchill Dew Point Humidity Pressure Visibility Wind Dir Wind Speed Gust Speed Precip Events Conditions
12:53 AM 39.9 °F - 39.0 °F 97% 30.16 in 0.2 mi Calm Calm - N/A   Unknown
1:18 AM 39.2 °F - 39.2 °F 100% 30.15 in 0.5 mi Calm Calm - N/A   Unknown
1:28 AM 39.2 °F - 39.2 °F 100% 30.15 in 0.2 mi Calm Calm - N/A   Unknown
1:53 AM 39.0 °F - 37.9 °F 96% 30.15 in 0.2 mi Calm Calm - N/A   Unknown
2:09 AM 39.2 °F - 37.4 °F 93% 30.14 in 0.8 mi Calm Calm - N/A   Unknown
2:48 AM 39.2 °F - 37.4 °F 93% 30.15 in 2.0 mi Calm Calm - N/A   Overcast
2:53 AM 39.0 °F - 37.0 °F 93% 30.15 in 3.0 mi Calm Calm - N/A   Overcast
2:58 AM 39.2 °F - 37.4 °F 93% 30.14 in 1.8 mi Calm Calm - N/A   Overcast
3:17 AM 37.4 °F - 37.4 °F 100% 30.15 in 0.2 mi Calm Calm - N/A   Unknown
3:35 AM 37.4 °F - 37.4 °F 100% 30.15 in 0.5 mi Calm Calm - N/A   Unknown
3:53 AM 37.9 °F - 37.0 °F 97% 30.15 in 0.8 mi Calm Calm - N/A   Unknown
3:59 AM 37.4 °F - 37.4 °F 100% 30.15 in 2.5 mi Calm Calm - N/A   Mostly Cloudy
4:01 AM 37.4 °F - 37.4 °F 100% 30.15 in 3.0 mi Calm Calm - N/A   Scattered Clouds
4:24 AM 37.4 °F - 35.6 °F 93% 30.15 in 2.0 mi Calm Calm - N/A   Clear
4:53 AM 37.0 °F - 35.1 °F 93% 30.15 in 1.0 mi Calm Calm - N/A   Clear
5:10 AM 37.4 °F - 35.6 °F 93% 30.15 in 3.0 mi Calm Calm - N/A   Clear
5:53 AM 36.0 °F - 35.1 °F 97% 30.17 in 3.0 mi Calm Calm - N/A   Partly Cloudy
6:00 AM 35.6 °F - 35.6 °F 100% 30.16 in 1.5 mi Calm Calm - N/A   Clear
6:06 AM 35.6 °F - 35.6 °F 100% 30.16 in 0.8 mi Calm Calm - N/A   Unknown
6:10 AM 35.6 °F - 35.6 °F 100% 30.17 in 1.2 mi Calm Calm - N/A   Scattered Clouds
6:13 AM 35.6 °F - 35.6 °F 100% 30.17 in 3.0 mi Calm Calm - N/A   Scattered Clouds
6:20 AM 37.4 °F - 35.6 °F 93% 30.17 in 6.0 mi Calm Calm - N/A   Mostly Cloudy
6:53 AM 34.0 °F - 33.1 °F 96% 30.17 in 3.0 mi Calm Calm - N/A   Mostly Cloudy
6:55 AM 33.8 °F - 33.8 °F 100% 30.17 in 2.5 mi Calm Calm - N/A   Scattered Clouds
6:57 AM 35.6 °F - 33.8 °F 93% 30.17 in 1.0 mi Calm Calm - N/A   Unknown
7:00 AM 35.6 °F - 33.8 °F 93% 30.17 in 0.2 mi Calm Calm - N/A   Unknown
7:14 AM 39.2 °F - 37.4 °F 93% 30.18 in 0.5 mi Calm Calm - N/A   Clear
7:19 AM 39.2 °F - 37.4 °F 93% 30.18 in 2.0 mi Calm Calm - N/A   Clear
7:35 AM 42.8 °F - 41.0 °F 93% 30.19 in 4.0 mi Calm Calm - N/A   Clear
7:53 AM 45.0 °F 43.5 °F 43.0 °F 93% 30.19 in 6.0 mi North 3.5 mph - N/A   Clear
8:53 AM 52.0 °F - 45.0 °F 77% 30.22 in 10.0 mi North 4.6 mph - N/A   Clear
9:53 AM 57.9 °F - 42.1 °F 56% 30.23 in 10.0 mi North 4.6 mph - N/A   Clear
10:53 AM 63.0 °F - 41.0 °F 45% 30.21 in 10.0 mi North 5.8 mph - N/A   Clear
11:53 AM 64.9 °F - 39.9 °F 40% 30.18 in 10.0 mi NNE 9.2 mph - N/A   Clear
12:53 PM 66.9 °F - 39.0 °F 36% 30.16 in 10.0 mi North 6.9 mph 16.1 mph N/A   Clear
1:53 PM 68.0 °F - 39.0 °F 35% 30.14 in 10.0 mi North 8.1 mph - N/A   Clear
2:53 PM 66.9 °F - 39.9 °F 37% 30.14 in 10.0 mi NNW 12.7 mph - N/A   Clear
3:53 PM 66.0 °F - 37.9 °F 36% 30.15 in 10.0 mi NNW 11.5 mph - N/A   Clear
4:53 PM 62.1 °F - 39.0 °F 43% 30.17 in 10.0 mi North 8.1 mph - N/A   Clear
5:53 PM 54.0 °F - 41.0 °F 62% 30.18 in 10.0 mi Calm Calm - N/A   Clear
6:53 PM 50.0 °F - 42.1 °F 74% 30.19 in 10.0 mi Calm Calm - N/A   Clear
7:53 PM 46.9 °F - 41.0 °F 80% 30.21 in 10.0 mi Calm Calm - N/A   Clear
8:53 PM 46.0 °F - 41.0 °F 83% 30.22 in 10.0 mi Calm Calm - N/A   Clear
9:53 PM 46.9 °F - 41.0 °F 80% 30.22 in 10.0 mi NNE 3.5 mph - N/A   Clear
10:53 PM 44.1 °F - 39.9 °F 85% 30.22 in 10.0 mi Calm Calm - N/A   Clear
11:53 PM 45.0 °F 41.2 °F 39.9 °F 82% 30.22 in 10.0 mi North 6.9 mph - N/A   Clear